This is the latest recevied weather packets stored in our database for station/object WD0REW. If no packets are shown the sender has not sent any weather packets the latest 10 day(s).
| Time | Temp. | Humidity | Pressure | Rain* | Wind** | Luminosity | Snow |
|---|---|---|---|---|---|---|---|
| 1777848487 | 25° C | 33% | 1012.9 hPa | 0 mm | - | 72 W/m² | - |
| 1777848184 | 25° C | 31% | 1013 hPa | 0 mm | - | 63 W/m² | - |
| 1777847882 | 25.56° C | 33% | 1013.1 hPa | 0 mm | - | 47 W/m² | - |
| 1777847579 | 25.56° C | 33% | 1012.9 hPa | 0 mm | - | 40 W/m² | - |
| 1777847275 | 25.56° C | 31% | 1012.9 hPa | 0 mm | - | 37 W/m² | - |
| 1777846973 | 25.56° C | 31% | 1013 hPa | 0 mm | - | 38 W/m² | - |
| 1777846671 | 25.56° C | 31% | 1013.1 hPa | 0 mm | - | 42 W/m² | - |
| 1777846369 | 25.56° C | 31% | 1013.3 hPa | 0 mm | - | 40 W/m² | - |
| 1777846065 | 25.56° C | 32% | 1013.3 hPa | 0 mm | - | 39 W/m² | - |
| 1777845763 | 25.56° C | 32% | 1013.4 hPa | 0 mm | - | 38 W/m² | - |
| 1777845459 | 25.56° C | 34% | 1013.1 hPa | 0 mm | - | 39 W/m² | - |
| 1777845156 | 26.11° C | 30% | 1013.1 hPa | 0 mm | - | 40 W/m² | - |
| 1777844854 | 26.11° C | 33% | 1013.4 hPa | 0 mm | - | 40 W/m² | - |
| 1777844551 | 26.11° C | 31% | 1013.4 hPa | 0 mm | - | 40 W/m² | - |
| 1777844249 | 26.11° C | 29% | 1013.5 hPa | 0 mm | - | 75 W/m² | - |
| 1777843946 | 26.11° C | 31% | 1013.4 hPa | 0 mm | - | 42 W/m² | - |
| 1777843642 | 26.11° C | 33% | 1013.6 hPa | 0 mm | - | 42 W/m² | - |
| 1777843340 | 26.11° C | 30% | 1013.5 hPa | 0 mm | - | 44 W/m² | - |
| 1777843038 | 26.11° C | 33% | 1013.9 hPa | 0 mm | - | 44 W/m² | - |
| 1777842734 | 26.11° C | 31% | 1013.7 hPa | 0 mm | - | 44 W/m² | - |
| 1777842429 | 26.11° C | 30% | 1014 hPa | 0 mm | - | 45 W/m² | - |
| 1777842127 | 26.11° C | 30% | 1013.9 hPa | 0 mm | - | 46 W/m² | - |
| 1777841822 | 26.11° C | 32% | 1014 hPa | 0 mm | - | 49 W/m² | - |
| 1777841518 | 26.11° C | 33% | 1014.2 hPa | 0 mm | - | 48 W/m² | - |
| 1777841215 | 26.11° C | 32% | 1014 hPa | 0 mm | - | 50 W/m² | - |
* Rain latest hour (hover to see other rain measurements)
** Current wind speed in m/s (hover to see current wind gust speed)